NORTHEAST SUFFOLK  -  Rip Current Statement Rip Current Statement        NORTHERN NASSAU  -  Rip Current Statement Rip Current Statement        NORTHERN QUEENS  -  Rip Current Statement Rip Current Statement     Air Quality Alert Air Quality Alert        NORTHWEST SUFFOLK  -  Rip Current Statement Rip Current Statement        SOUTHEAST SUFFOLK  -  Rip Current Statement Rip Current Statement        SOUTHERN NASSAU  -  Rip Current Statement Rip Current Statement        SOUTHERN QUEENS  -  Rip Current Statement Rip Current Statement     Air Quality Alert Air Quality Alert        SOUTHWEST SUFFOLK  -  Rip Current Statement Rip Current Statement      

Active alerts

Northern Queens
  Details for Northern Queens Rip Current Statement  +1 additional alert
Southern Queens
  Details for Southern Queens Rip Current Statement  +1 additional alert
Northern Nassau
  Details for Northern Nassau Rip Current Statement
Southern Nassau
  Details for Southern Nassau Rip Current Statement
Northwest Suffolk
  Details for Northwest Suffolk Rip Current Statement
Southwest Suffolk
  Details for Southwest Suffolk Rip Current Statement
Northeast Suffolk
  Details for Northeast Suffolk Rip Current Statement
Southeast Suffolk
  Details for Southeast Suffolk Rip Current Statement


WXM80 ListenWXM80 Stop

You find our weather info also at:

UK Metoffice

WeatherCloud

Weather Underground

Northeastern Weather Network

AWEKAS

Citizen Weather Observer Program (CWOP)

HAMweather, WeatherForYou, PWS Weather


Weather Underground History page Text

Daily Summary for May 16, 2017 Units:  Both    English   Metric
« Previous Day
Next Day »
Daily Weekly Monthly Yearly Custom
  High: Low: Average:
Temperature: 79.9 °F /  26.6 °C 53.3 °F /  11.8 °C 66.6 °F /  19.2 °C
Dew Point: 55.7 °F /  13.2 °C 47.2 °F /  8.4 °C 51.1 °F /  10.6 °C
Humidity: 84 % 36 % 60 %
Wind Speed: 10.9 mph /  17.5 km/h - 2.4 mph /  3.9 km/h
Wind Gust: 13.8 mph /  22.2 km/h - -
Wind:- - WSW
Pressure: 29.97 in /  1014.8 hPa 29.86 in /  1011.1 hPa -
Precipitation: 0.00 in /  0 mm    
Historical Graphs
 
 
Tabular Data for May 16, 2017
Time Temperature Dew Point Pressure Wind Wind Speed Wind Gust Humidity Rainfall Rate (Hourly)
00:00 59.1 °F /  15.1 °C 47.3 °F /  8.5 °C 29.86 in /  1011.1 hPa West 2.7 mph /  4.3 km/h 3.5 mph /  5.6 km/h 65 % 0.00 in /  0 mm
00:05 59.0 °F /  15 °C 47.2 °F /  8.4 °C 29.86 in /  1011.1 hPa WSW 3.3 mph /  5.3 km/h 5.8 mph /  9.3 km/h 65 % 0.00 in /  0 mm
00:11 59.0 °F /  15 °C 47.2 °F /  8.4 °C 29.86 in /  1011.1 hPa West 3.0 mph /  4.8 km/h 12.0 mph /  19.3 km/h 65 % 0.00 in /  0 mm
00:16 59.0 °F /  15 °C 47.2 °F /  8.4 °C 29.86 in /  1011.1 hPa West 5.0 mph /  8 km/h 9.0 mph /  14.5 km/h 65 % 0.00 in /  0 mm
00:21 59.0 °F /  15 °C 47.7 °F /  8.7 °C 29.87 in /  1011.4 hPa WNW 5.6 mph /  9 km/h 7.0 mph /  11.3 km/h 66 % 0.00 in /  0 mm
00:26 58.9 °F /  14.9 °C 47.6 °F /  8.7 °C 29.87 in /  1011.4 hPa West 3.0 mph /  4.8 km/h 10.0 mph /  16.1 km/h 66 % 0.00 in /  0 mm
00:31 58.9 °F /  14.9 °C 47.6 °F /  8.7 °C 29.87 in /  1011.4 hPa West 3.0 mph /  4.8 km/h 6.0 mph /  9.7 km/h 66 % 0.00 in /  0 mm
00:36 58.9 °F /  14.9 °C 47.6 °F /  8.7 °C 29.87 in /  1011.4 hPa WNW 3.0 mph /  4.8 km/h 6.0 mph /  9.7 km/h 66 % 0.00 in /  0 mm
00:41 58.9 °F /  14.9 °C 47.6 °F /  8.7 °C 29.87 in /  1011.4 hPa WNW 5.0 mph /  8 km/h 10.0 mph /  16.1 km/h 66 % 0.00 in /  0 mm
00:46 58.8 °F /  14.9 °C 47.9 °F /  8.8 °C 29.87 in /  1011.4 hPa West 2.0 mph /  3.2 km/h 8.0 mph /  12.9 km/h 67 % 0.00 in /  0 mm
00:51 58.7 °F /  14.8 °C 47.8 °F /  8.8 °C 29.87 in /  1011.4 hPa West 2.0 mph /  3.2 km/h 6.0 mph /  9.7 km/h 67 % 0.00 in /  0 mm
00:56 58.7 °F /  14.8 °C 47.8 °F /  8.8 °C 29.87 in /  1011.4 hPa West 1.0 mph /  1.6 km/h 9.0 mph /  14.5 km/h 67 % 0.00 in /  0 mm
01:01 58.6 °F /  14.8 °C 47.7 °F /  8.7 °C 29.87 in /  1011.4 hPa WSW 4.2 mph /  6.8 km/h 10.4 mph /  16.7 km/h 67 % 0.00 in /  0 mm
01:06 58.6 °F /  14.8 °C 47.7 °F /  8.7 °C 29.87 in /  1011.4 hPa WSW 5.0 mph /  8 km/h 10.0 mph /  16.1 km/h 67 % 0.00 in /  0 mm
01:11 58.6 °F /  14.8 °C 47.7 °F /  8.7 °C 29.87 in /  1011.4 hPa WSW 5.0 mph /  8 km/h 10.0 mph /  16.1 km/h 67 % 0.00 in /  0 mm
01:16 58.6 °F /  14.8 °C 47.6 °F /  8.7 °C 29.87 in /  1011.4 hPa West 5.0 mph /  8 km/h 12.0 mph /  19.3 km/h 67 % 0.00 in /  0 mm
01:21 58.5 °F /  14.7 °C 47.6 °F /  8.7 °C 29.87 in /  1011.4 hPa WSW 2.0 mph /  3.2 km/h 12.0 mph /  19.3 km/h 67 % 0.00 in /  0 mm
01:26 58.5 °F /  14.7 °C 47.6 °F /  8.7 °C 29.87 in /  1011.4 hPa WSW 2.0 mph /  3.2 km/h 5.0 mph /  8 km/h 67 % 0.00 in /  0 mm
01:31 58.5 °F /  14.7 °C 47.6 °F /  8.7 °C 29.87 in /  1011.4 hPa WSW 3.0 mph /  4.8 km/h 8.0 mph /  12.9 km/h 67 % 0.00 in /  0 mm
01:36 58.5 °F /  14.7 °C 48.0 °F /  8.9 °C 29.88 in /  1011.7 hPa WSW 5.0 mph /  8 km/h 10.0 mph /  16.1 km/h 68 % 0.00 in /  0 mm
01:41 58.5 °F /  14.7 °C 48.0 °F /  8.9 °C 29.88 in /  1011.7 hPa SW 2.4 mph /  3.9 km/h 3.5 mph /  5.6 km/h 68 % 0.00 in /  0 mm
01:46 58.4 °F /  14.7 °C 48.3 °F /  9.1 °C 29.88 in /  1011.7 hPa SW 2.0 mph /  3.2 km/h 5.0 mph /  8 km/h 69 % 0.00 in /  0 mm
01:51 58.3 °F /  14.6 °C 48.2 °F /  9 °C 29.88 in /  1011.7 hPa West 1.7 mph /  2.7 km/h 3.5 mph /  5.6 km/h 69 % 0.00 in /  0 mm
01:56 58.2 °F /  14.6 °C 48.1 °F /  8.9 °C 29.87 in /  1011.4 hPa WSW 3.5 mph /  5.6 km/h 6.0 mph /  9.7 km/h 69 % 0.00 in /  0 mm
02:01 58.1 °F /  14.5 °C 48.4 °F /  9.1 °C 29.88 in /  1011.7 hPa WSW 2.1 mph /  3.4 km/h 4.0 mph /  6.4 km/h 70 % 0.00 in /  0 mm
02:06 58.0 °F /  14.4 °C 48.3 °F /  9.1 °C 29.88 in /  1011.7 hPa West 1.1 mph /  1.8 km/h 3.5 mph /  5.6 km/h 70 % 0.00 in /  0 mm
02:11 57.9 °F /  14.4 °C 48.6 °F /  9.2 °C 29.88 in /  1011.7 hPa West 0.6 mph /  1 km/h 2.3 mph /  3.7 km/h 71 % 0.00 in /  0 mm
02:16 57.7 °F /  14.3 °C 48.4 °F /  9.1 °C 29.87 in /  1011.4 hPa WSW 1.4 mph /  2.3 km/h 3.5 mph /  5.6 km/h 71 % 0.00 in /  0 mm
02:21 57.6 °F /  14.2 °C 48.6 °F /  9.2 °C 29.87 in /  1011.4 hPa West 1.8 mph /  2.9 km/h 4.0 mph /  6.4 km/h 72 % 0.00 in /  0 mm
02:26 57.4 °F /  14.1 °C 48.4 °F /  9.1 °C 29.88 in /  1011.7 hPa SW 1.6 mph /  2.6 km/h 3.5 mph /  5.6 km/h 72 % 0.00 in /  0 mm
02:31 57.3 °F /  14.1 °C 48.3 °F /  9.1 °C 29.88 in /  1011.7 hPa West 0.4 mph /  0.6 km/h 3.5 mph /  5.6 km/h 72 % 0.00 in /  0 mm
02:36 57.2 °F /  14 °C 48.6 °F /  9.2 °C 29.87 in /  1011.4 hPa WSW 0.9 mph /  1.4 km/h 2.0 mph /  3.2 km/h 73 % 0.00 in /  0 mm
02:41 57.0 °F /  13.9 °C 48.4 °F /  9.1 °C 29.87 in /  1011.4 hPa Calm   2.3 mph /  3.7 km/h 73 % 0.00 in /  0 mm
02:46 56.9 °F /  13.8 °C 48.3 °F /  9.1 °C 29.87 in /  1011.4 hPa WSW 0.1 mph /  0.2 km/h 5.8 mph /  9.3 km/h 73 % 0.00 in /  0 mm
02:52 56.8 °F /  13.8 °C 48.2 °F /  9 °C 29.87 in /  1011.4 hPa WSW 1.4 mph /  2.3 km/h 2.3 mph /  3.7 km/h 73 % 0.00 in /  0 mm
02:57 56.7 °F /  13.7 °C 48.1 °F /  8.9 °C 29.87 in /  1011.4 hPa Calm   2.3 mph /  3.7 km/h 73 % 0.00 in /  0 mm
03:02 56.6 °F /  13.7 °C 48.0 °F /  8.9 °C 29.87 in /  1011.4 hPa Calm   1.2 mph /  1.9 km/h 73 % 0.00 in /  0 mm
03:07 56.5 °F /  13.6 °C 47.9 °F /  8.8 °C 29.87 in /  1011.4 hPa WSW 0.2 mph /  0.3 km/h 1.2 mph /  1.9 km/h 73 % 0.00 in /  0 mm
03:12 56.4 °F /  13.6 °C 48.2 °F /  9 °C 29.87 in /  1011.4 hPa Calm   1.2 mph /  1.9 km/h 74 % 0.00 in /  0 mm
03:17 56.3 °F /  13.5 °C 48.1 °F /  8.9 °C 29.87 in /  1011.4 hPa Calm     74 % 0.00 in /  0 mm
03:22 56.1 °F /  13.4 °C 48.3 °F /  9.1 °C 29.87 in /  1011.4 hPa WSW 0.2 mph /  0.3 km/h 1.2 mph /  1.9 km/h 75 % 0.00 in /  0 mm
03:27 55.9 °F /  13.3 °C 48.4 °F /  9.1 °C 29.88 in /  1011.7 hPa WSW 1.1 mph /  1.8 km/h 2.3 mph /  3.7 km/h 76 % 0.00 in /  0 mm
03:32 55.6 °F /  13.1 °C 48.2 °F /  9 °C 29.88 in /  1011.7 hPa WSW 1.5 mph /  2.4 km/h 2.3 mph /  3.7 km/h 76 % 0.00 in /  0 mm
03:38 55.3 °F /  12.9 °C 48.2 °F /  9 °C 29.88 in /  1011.7 hPa WSW 0.3 mph /  0.5 km/h 1.2 mph /  1.9 km/h 77 % 0.00 in /  0 mm
03:43 55.1 °F /  12.8 °C 48.4 °F /  9.1 °C 29.88 in /  1011.7 hPa WSW 1.3 mph /  2.1 km/h 2.3 mph /  3.7 km/h 78 % 0.00 in /  0 mm
03:48 54.9 °F /  12.7 °C 48.5 °F /  9.2 °C 29.88 in /  1011.7 hPa WSW 1.5 mph /  2.4 km/h 3.5 mph /  5.6 km/h 79 % 0.00 in /  0 mm
03:53 54.6 °F /  12.6 °C 48.6 °F /  9.2 °C 29.88 in /  1011.7 hPa WSW 1.8 mph /  2.9 km/h 3.5 mph /  5.6 km/h 80 % 0.00 in /  0 mm
03:58 54.4 °F /  12.4 °C 48.4 °F /  9.1 °C 29.88 in /  1011.7 hPa WSW 0.9 mph /  1.4 km/h 2.3 mph /  3.7 km/h 80 % 0.00 in /  0 mm
04:03 54.2 °F /  12.3 °C 48.2 °F /  9 °C 29.88 in /  1011.7 hPa Calm   1.2 mph /  1.9 km/h 80 % 0.00 in /  0 mm
04:08 54.1 °F /  12.3 °C 48.4 °F /  9.1 °C 29.88 in /  1011.7 hPa WSW 0.5 mph /  0.8 km/h 2.3 mph /  3.7 km/h 81 % 0.00 in /  0 mm
04:13 53.9 °F /  12.2 °C 48.2 °F /  9 °C 29.89 in /  1012.1 hPa WSW 1.5 mph /  2.4 km/h 2.3 mph /  3.7 km/h 81 % 0.00 in /  0 mm
04:18 53.7 °F /  12.1 °C 48.3 °F /  9.1 °C 29.89 in /  1012.1 hPa WSW 2.3 mph /  3.7 km/h 4.0 mph /  6.4 km/h 82 % 0.00 in /  0 mm
04:23 53.6 °F /  12 °C 48.6 °F /  9.2 °C 29.90 in /  1012.4 hPa WSW 1.3 mph /  2.1 km/h 3.5 mph /  5.6 km/h 83 % 0.00 in /  0 mm
04:28 53.5 °F /  11.9 °C 48.5 °F /  9.2 °C 29.90 in /  1012.4 hPa West 2.6 mph /  4.2 km/h 6.0 mph /  9.7 km/h 83 % 0.00 in /  0 mm
04:33 53.3 °F /  11.8 °C 48.6 °F /  9.2 °C 29.90 in /  1012.4 hPa West 2.3 mph /  3.7 km/h 3.5 mph /  5.6 km/h 84 % 0.00 in /  0 mm
04:38 53.3 °F /  11.8 °C 48.6 °F /  9.2 °C 29.90 in /  1012.4 hPa WSW 1.1 mph /  1.8 km/h 2.3 mph /  3.7 km/h 84 % 0.00 in /  0 mm
04:43 53.4 °F /  11.9 °C 48.7 °F /  9.3 °C 29.90 in /  1012.4 hPa West 2.7 mph /  4.3 km/h 3.0 mph /  4.8 km/h 84 % 0.00 in /  0 mm
04:49 53.5 °F /  11.9 °C 48.8 °F /  9.3 °C 29.90 in /  1012.4 hPa SW 0.3 mph /  0.5 km/h 2.3 mph /  3.7 km/h 84 % 0.00 in /  0 mm
04:54 53.5 °F /  11.9 °C 48.8 °F /  9.3 °C 29.90 in /  1012.4 hPa WNW 4.4 mph /  7.1 km/h 6.9 mph /  11.1 km/h 84 % 0.00 in /  0 mm
04:59 53.5 °F /  11.9 °C 48.5 °F /  9.2 °C 29.90 in /  1012.4 hPa WNW 0.7 mph /  1.1 km/h 2.3 mph /  3.7 km/h 83 % 0.00 in /  0 mm
05:04 53.6 °F /  12 °C 48.6 °F /  9.2 °C 29.90 in /  1012.4 hPa WNW 2.0 mph /  3.2 km/h 3.5 mph /  5.6 km/h 83 % 0.00 in /  0 mm
05:09 53.6 °F /  12 °C 48.6 °F /  9.2 °C 29.90 in /  1012.4 hPa West 1.5 mph /  2.4 km/h 3.5 mph /  5.6 km/h 83 % 0.00 in /  0 mm
05:14 53.6 °F /  12 °C 48.6 °F /  9.2 °C 29.91 in /  1012.8 hPa WSW 2.6 mph /  4.2 km/h 3.5 mph /  5.6 km/h 83 % 0.00 in /  0 mm
05:19 53.6 °F /  12 °C 48.6 °F /  9.2 °C 29.91 in /  1012.8 hPa WSW 2.1 mph /  3.4 km/h 5.8 mph /  9.3 km/h 83 % 0.00 in /  0 mm
05:24 53.7 °F /  12.1 °C 48.3 °F /  9.1 °C 29.92 in /  1013.1 hPa WSW 2.7 mph /  4.3 km/h 4.0 mph /  6.4 km/h 82 % 0.00 in /  0 mm
05:29 53.8 °F /  12.1 °C 48.4 °F /  9.1 °C 29.92 in /  1013.1 hPa West 2.6 mph /  4.2 km/h 8.1 mph /  13 km/h 82 % 0.00 in /  0 mm
05:34 53.9 °F /  12.2 °C 48.5 °F /  9.2 °C 29.93 in /  1013.4 hPa West 2.4 mph /  3.9 km/h 8.1 mph /  13 km/h 82 % 0.00 in /  0 mm
05:39 54.1 °F /  12.3 °C 48.7 °F /  9.3 °C 29.93 in /  1013.4 hPa WSW 2.7 mph /  4.3 km/h 5.8 mph /  9.3 km/h 82 % 0.00 in /  0 mm
05:44 54.2 °F /  12.3 °C 48.5 °F /  9.2 °C 29.93 in /  1013.4 hPa WSW 1.9 mph /  3.1 km/h 6.0 mph /  9.7 km/h 81 % 0.00 in /  0 mm
05:49 54.3 °F /  12.4 °C 48.6 °F /  9.2 °C 29.92 in /  1013.1 hPa WSW 0.9 mph /  1.4 km/h 3.5 mph /  5.6 km/h 81 % 0.00 in /  0 mm
05:54 54.4 °F /  12.4 °C 48.7 °F /  9.3 °C 29.93 in /  1013.4 hPa WSW 2.8 mph /  4.5 km/h 4.6 mph /  7.4 km/h 81 % 0.00 in /  0 mm
05:59 54.5 °F /  12.5 °C 49.1 °F /  9.5 °C 29.93 in /  1013.4 hPa SW 3.5 mph /  5.6 km/h 5.8 mph /  9.3 km/h 82 % 0.00 in /  0 mm
06:04 54.6 °F /  12.6 °C 49.2 °F /  9.6 °C 29.93 in /  1013.4 hPa West 1.9 mph /  3.1 km/h 5.0 mph /  8 km/h 82 % 0.00 in /  0 mm
06:09 54.6 °F /  12.6 °C 49.2 °F /  9.6 °C 29.93 in /  1013.4 hPa South 3.3 mph /  5.3 km/h 4.6 mph /  7.4 km/h 82 % 0.00 in /  0 mm
06:14 54.7 °F /  12.6 °C 49.0 °F /  9.4 °C 29.93 in /  1013.4 hPa WSW 2.6 mph /  4.2 km/h 5.8 mph /  9.3 km/h 81 % 0.00 in /  0 mm
06:19 54.9 °F /  12.7 °C 49.2 °F /  9.6 °C 29.93 in /  1013.4 hPa West 5.6 mph /  9 km/h 8.1 mph /  13 km/h 81 % 0.00 in /  0 mm
06:24 55.1 °F /  12.8 °C 49.4 °F /  9.7 °C 29.94 in /  1013.8 hPa WSW 1.1 mph /  1.8 km/h 3.5 mph /  5.6 km/h 81 % 0.00 in /  0 mm
06:29 55.3 °F /  12.9 °C 49.6 °F /  9.8 °C 29.94 in /  1013.8 hPa WNW 3.8 mph /  6.1 km/h 5.8 mph /  9.3 km/h 81 % 0.00 in /  0 mm
06:34 55.6 °F /  13.1 °C 49.5 °F /  9.7 °C 29.94 in /  1013.8 hPa WSW 2.9 mph /  4.7 km/h 8.1 mph /  13 km/h 80 % 0.00 in /  0 mm
06:39 55.9 °F /  13.3 °C 49.8 °F /  9.9 °C 29.95 in /  1014.1 hPa WSW 4.5 mph /  7.2 km/h 8.1 mph /  13 km/h 80 % 0.00 in /  0 mm
06:44 56.3 °F /  13.5 °C 49.9 °F /  9.9 °C 29.95 in /  1014.1 hPa WSW 3.2 mph /  5.1 km/h 5.8 mph /  9.3 km/h 79 % 0.00 in /  0 mm
06:49 56.7 °F /  13.7 °C 49.9 °F /  9.9 °C 29.94 in /  1013.8 hPa SSW 1.9 mph /  3.1 km/h 4.6 mph /  7.4 km/h 78 % 0.00 in /  0 mm
06:54 57.2 °F /  14 °C 50.4 °F /  10.2 °C 29.94 in /  1013.8 hPa WSW 4.7 mph /  7.6 km/h 8.1 mph /  13 km/h 78 % 0.00 in /  0 mm
06:59 57.6 °F /  14.2 °C 50.1 °F /  10.1 °C 29.94 in /  1013.8 hPa West 4.5 mph /  7.2 km/h 5.8 mph /  9.3 km/h 76 % 0.00 in /  0 mm
07:04 58.1 °F /  14.5 °C 50.2 °F /  10.1 °C 29.94 in /  1013.8 hPa SW 6.1 mph /  9.8 km/h 8.0 mph /  12.9 km/h 75 % 0.00 in /  0 mm
07:06 58.1 °F /  14.5 °C 50.2 °F /  10.1 °C 29.94 in /  1013.8 hPa WSW 6.0 mph /  9.7 km/h 10.0 mph /  16.1 km/h 75 % 0.00 in /  0 mm
07:11 58.6 °F /  14.8 °C 50.0 °F /  10 °C 29.94 in /  1013.8 hPa West 3.9 mph /  6.3 km/h 6.9 mph /  11.1 km/h 73 % 0.00 in /  0 mm
07:16 58.9 °F /  14.9 °C 50.3 °F /  10.2 °C 29.94 in /  1013.8 hPa SW 3.0 mph /  4.8 km/h 9.2 mph /  14.8 km/h 73 % 0.00 in /  0 mm
07:21 59.2 °F /  15.1 °C 50.5 °F /  10.3 °C 29.94 in /  1013.8 hPa WNW 1.0 mph /  1.6 km/h 6.0 mph /  9.7 km/h 73 % 0.00 in /  0 mm
07:26 59.5 °F /  15.3 °C 50.8 °F /  10.4 °C 29.94 in /  1013.8 hPa WSW 0.9 mph /  1.4 km/h 2.3 mph /  3.7 km/h 73 % 0.00 in /  0 mm
07:31 59.6 °F /  15.3 °C 50.2 °F /  10.1 °C 29.95 in /  1014.1 hPa West 5.0 mph /  8 km/h 7.0 mph /  11.3 km/h 71 % 0.00 in /  0 mm
07:36 59.8 °F /  15.4 °C 50.4 °F /  10.2 °C 29.95 in /  1014.1 hPa West 2.0 mph /  3.2 km/h 9.0 mph /  14.5 km/h 71 % 0.00 in /  0 mm
07:41 59.8 °F /  15.4 °C 50.0 °F /  10 °C 29.95 in /  1014.1 hPa West 2.0 mph /  3.2 km/h 7.0 mph /  11.3 km/h 70 % 0.00 in /  0 mm
07:46 59.8 °F /  15.4 °C 50.0 °F /  10 °C 29.96 in /  1014.4 hPa West 5.0 mph /  8 km/h 10.0 mph /  16.1 km/h 70 % 0.00 in /  0 mm
07:51 59.8 °F /  15.4 °C 50.4 °F /  10.2 °C 29.96 in /  1014.4 hPa West 1.0 mph /  1.6 km/h 5.0 mph /  8 km/h 71 % 0.00 in /  0 mm
07:56 59.9 °F /  15.5 °C 50.8 °F /  10.4 °C 29.96 in /  1014.4 hPa WSW 3.0 mph /  4.8 km/h 7.0 mph /  11.3 km/h 72 % 0.00 in /  0 mm
08:01 60.1 °F /  15.6 °C 51.0 °F /  10.6 °C 29.96 in /  1014.4 hPa WNW 0.6 mph /  1 km/h 3.5 mph /  5.6 km/h 72 % 0.00 in /  0 mm
08:06 60.4 °F /  15.8 °C 51.7 °F /  10.9 °C 29.96 in /  1014.4 hPa West 1.5 mph /  2.4 km/h 3.5 mph /  5.6 km/h 73 % 0.00 in /  0 mm
08:11 60.6 °F /  15.9 °C 51.5 °F /  10.8 °C 29.95 in /  1014.1 hPa SW 2.8 mph /  4.5 km/h 4.6 mph /  7.4 km/h 72 % 0.00 in /  0 mm
08:16 60.9 °F /  16.1 °C 51.4 °F /  10.8 °C 29.95 in /  1014.1 hPa WSW 3.4 mph /  5.5 km/h 6.9 mph /  11.1 km/h 71 % 0.00 in /  0 mm
08:21 61.3 °F /  16.3 °C 51.4 °F /  10.8 °C 29.95 in /  1014.1 hPa WSW 1.6 mph /  2.6 km/h 3.5 mph /  5.6 km/h 70 % 0.00 in /  0 mm
08:26 61.6 °F /  16.4 °C 51.3 °F /  10.7 °C 29.95 in /  1014.1 hPa West 3.1 mph /  5 km/h 6.0 mph /  9.7 km/h 69 % 0.00 in /  0 mm
08:31 62.0 °F /  16.7 °C 51.3 °F /  10.7 °C 29.96 in /  1014.4 hPa SW 1.6 mph /  2.6 km/h 3.5 mph /  5.6 km/h 68 % 0.00 in /  0 mm
08:36 62.2 °F /  16.8 °C 51.5 °F /  10.8 °C 29.96 in /  1014.4 hPa WSW 4.5 mph /  7.2 km/h 6.0 mph /  9.7 km/h 68 % 0.00 in /  0 mm
08:41 62.5 °F /  16.9 °C 51.4 °F /  10.8 °C 29.96 in /  1014.4 hPa WSW 2.2 mph /  3.5 km/h 3.5 mph /  5.6 km/h 67 % 0.00 in /  0 mm
08:46 62.7 °F /  17.1 °C 51.6 °F /  10.9 °C 29.97 in /  1014.8 hPa WNW 1.7 mph /  2.7 km/h 8.1 mph /  13 km/h 67 % 0.00 in /  0 mm
08:51 63.0 °F /  17.2 °C 52.3 °F /  11.3 °C 29.97 in /  1014.8 hPa West 3.8 mph /  6.1 km/h 5.8 mph /  9.3 km/h 68 % 0.00 in /  0 mm
08:56 63.3 °F /  17.4 °C 51.7 °F /  10.9 °C 29.97 in /  1014.8 hPa WNW 3.3 mph /  5.3 km/h 5.8 mph /  9.3 km/h 66 % 0.00 in /  0 mm
09:01 63.6 °F /  17.6 °C 52.0 °F /  11.1 °C 29.97 in /  1014.8 hPa WSW 3.3 mph /  5.3 km/h 8.0 mph /  12.9 km/h 66 % 0.00 in /  0 mm
09:06 63.8 °F /  17.7 °C 52.2 °F /  11.2 °C 29.97 in /  1014.8 hPa SSW 4.6 mph /  7.4 km/h 6.9 mph /  11.1 km/h 66 % 0.00 in /  0 mm
09:11 64.0 °F /  17.8 °C 52.0 °F /  11.1 °C 29.97 in /  1014.8 hPa WSW 1.8 mph /  2.9 km/h 6.9 mph /  11.1 km/h 65 % 0.00 in /  0 mm
09:16 64.3 °F /  17.9 °C 52.3 °F /  11.3 °C 29.97 in /  1014.8 hPa West 4.2 mph /  6.8 km/h 5.8 mph /  9.3 km/h 65 % 0.00 in /  0 mm
09:21 64.6 °F /  18.1 °C 53.0 °F /  11.7 °C 29.97 in /  1014.8 hPa SW 3.5 mph /  5.6 km/h 6.0 mph /  9.7 km/h 66 % 0.00 in /  0 mm
09:26 65.0 °F /  18.3 °C 52.5 °F /  11.4 °C 29.97 in /  1014.8 hPa WNW 3.1 mph /  5 km/h 6.9 mph /  11.1 km/h 64 % 0.00 in /  0 mm
09:31 65.4 °F /  18.6 °C 52.9 °F /  11.6 °C 29.97 in /  1014.8 hPa WNW 2.6 mph /  4.2 km/h 4.6 mph /  7.4 km/h 64 % 0.00 in /  0 mm
09:36 65.7 °F /  18.7 °C 51.9 °F /  11.1 °C 29.97 in /  1014.8 hPa West 4.7 mph /  7.6 km/h 9.2 mph /  14.8 km/h 61 % 0.00 in /  0 mm
09:41 66.1 °F /  18.9 °C 51.8 °F /  11 °C 29.97 in /  1014.8 hPa WNW 5.1 mph /  8.2 km/h 9.2 mph /  14.8 km/h 60 % 0.00 in /  0 mm
09:46 66.6 °F /  19.2 °C 53.6 °F /  12 °C 29.97 in /  1014.8 hPa West 2.4 mph /  3.9 km/h 6.9 mph /  11.1 km/h 63 % 0.00 in /  0 mm
09:51 67.2 °F /  19.6 °C 52.4 °F /  11.3 °C 29.97 in /  1014.8 hPa WNW 4.1 mph /  6.6 km/h 6.0 mph /  9.7 km/h 59 % 0.00 in /  0 mm
09:56 67.8 °F /  19.9 °C 52.9 °F /  11.6 °C 29.97 in /  1014.8 hPa West 3.6 mph /  5.8 km/h 6.9 mph /  11.1 km/h 59 % 0.00 in /  0 mm
10:01 68.5 °F /  20.3 °C 53.6 °F /  12 °C 29.97 in /  1014.8 hPa WNW 3.0 mph /  4.8 km/h 8.0 mph /  12.9 km/h 59 % 0.00 in /  0 mm
10:06 69.2 °F /  20.7 °C 53.3 °F /  11.8 °C 29.97 in /  1014.8 hPa WNW 4.5 mph /  7.2 km/h 9.2 mph /  14.8 km/h 57 % 0.00 in /  0 mm
10:11 70.1 °F /  21.2 °C 54.6 °F /  12.6 °C 29.97 in /  1014.8 hPa NW 0.7 mph /  1.1 km/h 3.5 mph /  5.6 km/h 58 % 0.00 in /  0 mm
10:12 70.2 °F /  21.2 °C 55.7 °F /  13.2 °C 29.97 in /  1014.8 hPa NW 0.2 mph /  0.3 km/h 2.3 mph /  3.7 km/h 60 % 0.00 in /  0 mm
10:17 70.7 °F /  21.5 °C 54.7 °F /  12.6 °C 29.97 in /  1014.8 hPa West 0.5 mph /  0.8 km/h 4.0 mph /  6.4 km/h 57 % 0.00 in /  0 mm
10:22 71.1 °F /  21.7 °C 53.6 °F /  12 °C 29.97 in /  1014.8 hPa NW 3.7 mph /  6 km/h 5.8 mph /  9.3 km/h 54 % 0.00 in /  0 mm
10:27 71.7 °F /  22.1 °C 54.7 °F /  12.6 °C 29.97 in /  1014.8 hPa West 4.1 mph /  6.6 km/h 8.0 mph /  12.9 km/h 55 % 0.00 in /  0 mm
10:32 72.1 °F /  22.3 °C 53.0 °F /  11.7 °C 29.96 in /  1014.4 hPa West 5.3 mph /  8.5 km/h 8.1 mph /  13 km/h 51 % 0.00 in /  0 mm
10:37 72.1 °F /  22.3 °C 53.0 °F /  11.7 °C 29.97 in /  1014.8 hPa WNW 4.0 mph /  6.4 km/h 11.5 mph /  18.5 km/h 51 % 0.00 in /  0 mm
10:42 72.2 °F /  22.3 °C 52.0 °F /  11.1 °C 29.97 in /  1014.8 hPa WNW 3.5 mph /  5.6 km/h 5.8 mph /  9.3 km/h 49 % 0.00 in /  0 mm
10:47 72.3 °F /  22.4 °C 52.1 °F /  11.2 °C 29.97 in /  1014.8 hPa WNW 3.5 mph /  5.6 km/h 6.9 mph /  11.1 km/h 49 % 0.00 in /  0 mm
10:52 72.4 °F /  22.4 °C 53.2 °F /  11.8 °C 29.97 in /  1014.8 hPa WNW 1.5 mph /  2.4 km/h 6.9 mph /  11.1 km/h 51 % 0.00 in /  0 mm
10:57 72.6 °F /  22.6 °C 51.8 °F /  11 °C 29.97 in /  1014.8 hPa West 3.7 mph /  6 km/h 5.8 mph /  9.3 km/h 48 % 0.00 in /  0 mm
11:02 72.6 °F /  22.6 °C 54.0 °F /  12.2 °C 29.97 in /  1014.8 hPa NNW 0.9 mph /  1.4 km/h 11.5 mph /  18.5 km/h 52 % 0.00 in /  0 mm
11:07 73.0 °F /  22.8 °C 52.7 °F /  11.5 °C 29.97 in /  1014.8 hPa WSW 5.2 mph /  8.4 km/h 9.0 mph /  14.5 km/h 49 % 0.00 in /  0 mm
11:12 73.2 °F /  22.9 °C 52.9 °F /  11.6 °C 29.97 in /  1014.8 hPa SSW 4.2 mph /  6.8 km/h 9.2 mph /  14.8 km/h 49 % 0.00 in /  0 mm
11:17 73.5 °F /  23.1 °C 52.6 °F /  11.4 °C 29.97 in /  1014.8 hPa West 6.0 mph /  9.7 km/h 9.2 mph /  14.8 km/h 48 % 0.00 in /  0 mm
11:21 73.7 °F /  23.2 °C 53.3 °F /  11.8 °C 29.97 in /  1014.8 hPa SSW 2.4 mph /  3.9 km/h 8.1 mph /  13 km/h 49 % 0.00 in /  0 mm
11:26 73.6 °F /  23.1 °C 52.1 °F /  11.2 °C 29.97 in /  1014.8 hPa NW 3.9 mph /  6.3 km/h 10.4 mph /  16.7 km/h 47 % 0.00 in /  0 mm
11:31 73.6 °F /  23.1 °C 52.7 °F /  11.5 °C 29.97 in /  1014.8 hPa SSW 4.3 mph /  6.9 km/h 9.2 mph /  14.8 km/h 48 % 0.00 in /  0 mm
11:32 73.5 °F /  23.1 °C 52.6 °F /  11.4 °C 29.97 in /  1014.8 hPa South 4.2 mph /  6.8 km/h 8.0 mph /  12.9 km/h 48 % 0.00 in /  0 mm
11:37 73.3 °F /  22.9 °C 53.0 °F /  11.7 °C 29.97 in /  1014.8 hPa SW 4.0 mph /  6.4 km/h 8.1 mph /  13 km/h 49 % 0.00 in /  0 mm
11:42 73.1 °F /  22.8 °C 52.2 °F /  11.2 °C 29.97 in /  1014.8 hPa SW 3.6 mph /  5.8 km/h 7.0 mph /  11.3 km/h 48 % 0.00 in /  0 mm
11:47 73.1 °F /  22.8 °C 52.8 °F /  11.6 °C 29.97 in /  1014.8 hPa WSW 4.7 mph /  7.6 km/h 9.2 mph /  14.8 km/h 49 % 0.00 in /  0 mm
11:52 73.1 °F /  22.8 °C 52.8 °F /  11.6 °C 29.97 in /  1014.8 hPa WSW 5.0 mph /  8 km/h 10.0 mph /  16.1 km/h 49 % 0.00 in /  0 mm
11:57 73.2 °F /  22.9 °C 52.9 °F /  11.6 °C 29.97 in /  1014.8 hPa SW 5.0 mph /  8 km/h 8.0 mph /  12.9 km/h 49 % 0.00 in /  0 mm
12:02 73.2 °F /  22.9 °C 51.8 °F /  11 °C 29.97 in /  1014.8 hPa SW 5.7 mph /  9.2 km/h 10.0 mph /  16.1 km/h 47 % 0.00 in /  0 mm
12:07 73.2 °F /  22.9 °C 52.9 °F /  11.6 °C 29.97 in /  1014.8 hPa SSW 2.3 mph /  3.7 km/h 9.2 mph /  14.8 km/h 49 % 0.00 in /  0 mm
12:12 73.2 °F /  22.9 °C 52.3 °F /  11.3 °C 29.97 in /  1014.8 hPa West 6.1 mph /  9.8 km/h 10.4 mph /  16.7 km/h 48 % 0.00 in /  0 mm
12:17 73.2 °F /  22.9 °C 53.4 °F /  11.9 °C 29.97 in /  1014.8 hPa SSW 2.9 mph /  4.7 km/h 9.2 mph /  14.8 km/h 50 % 0.00 in /  0 mm
12:22 73.2 °F /  22.9 °C 52.9 °F /  11.6 °C 29.96 in /  1014.4 hPa WSW 5.1 mph /  8.2 km/h 8.0 mph /  12.9 km/h 49 % 0.00 in /  0 mm
12:27 73.0 °F /  22.8 °C 51.0 °F /  10.6 °C 29.97 in /  1014.8 hPa WSW 5.8 mph /  9.3 km/h 11.5 mph /  18.5 km/h 46 % 0.00 in /  0 mm
12:32 72.9 °F /  22.7 °C 51.5 °F /  10.8 °C 29.96 in /  1014.4 hPa South 4.9 mph /  7.9 km/h 10.4 mph /  16.7 km/h 47 % 0.00 in /  0 mm
12:37 72.9 °F /  22.7 °C 52.1 °F /  11.2 °C 29.96 in /  1014.4 hPa West 6.8 mph /  10.9 km/h 11.5 mph /  18.5 km/h 48 % 0.00 in /  0 mm
12:42 73.0 °F /  22.8 °C 51.6 °F /  10.9 °C 29.96 in /  1014.4 hPa WNW 7.2 mph /  11.6 km/h 8.1 mph /  13 km/h 47 % 0.00 in /  0 mm
12:47 73.2 °F /  22.9 °C 51.8 °F /  11 °C 29.96 in /  1014.4 hPa WSW 3.9 mph /  6.3 km/h 11.5 mph /  18.5 km/h 47 % 0.00 in /  0 mm
12:52 73.4 °F /  23 °C 51.9 °F /  11.1 °C 29.95 in /  1014.1 hPa WSW 3.7 mph /  6 km/h 9.2 mph /  14.8 km/h 47 % 0.00 in /  0 mm
12:57 73.9 °F /  23.3 °C 53.0 °F /  11.7 °C 29.95 in /  1014.1 hPa SSW 6.9 mph /  11.1 km/h 10.4 mph /  16.7 km/h 48 % 0.00 in /  0 mm
12:58 73.9 °F /  23.3 °C 53.0 °F /  11.7 °C 29.95 in /  1014.1 hPa SW 6.5 mph /  10.5 km/h 10.4 mph /  16.7 km/h 48 % 0.00 in /  0 mm
13:03 74.4 °F /  23.6 °C 52.3 °F /  11.3 °C 29.95 in /  1014.1 hPa SW 6.1 mph /  9.8 km/h 11.5 mph /  18.5 km/h 46 % 0.00 in /  0 mm
13:08 75.0 °F /  23.9 °C 52.2 °F /  11.2 °C 29.95 in /  1014.1 hPa WSW 8.3 mph /  13.4 km/h 11.5 mph /  18.5 km/h 45 % 0.00 in /  0 mm
13:13 75.5 °F /  24.2 °C 52.7 °F /  11.5 °C 29.95 in /  1014.1 hPa West 3.9 mph /  6.3 km/h 7.0 mph /  11.3 km/h 45 % 0.00 in /  0 mm
13:18 75.8 °F /  24.3 °C 52.3 °F /  11.3 °C 29.95 in /  1014.1 hPa West 6.2 mph /  10 km/h 9.2 mph /  14.8 km/h 44 % 0.00 in /  0 mm
13:23 76.0 °F /  24.4 °C 52.5 °F /  11.4 °C 29.95 in /  1014.1 hPa WSW 3.2 mph /  5.1 km/h 8.1 mph /  13 km/h 44 % 0.00 in /  0 mm
13:28 76.1 °F /  24.5 °C 50.7 °F /  10.4 °C 29.95 in /  1014.1 hPa WSW 5.7 mph /  9.2 km/h 10.4 mph /  16.7 km/h 41 % 0.00 in /  0 mm
13:33 76.1 °F /  24.5 °C 52.0 °F /  11.1 °C 29.95 in /  1014.1 hPa SW 6.5 mph /  10.5 km/h 10.4 mph /  16.7 km/h 43 % 0.00 in /  0 mm
13:38 76.3 °F /  24.6 °C 54.6 °F /  12.6 °C 29.94 in /  1013.8 hPa WNW 3.6 mph /  5.8 km/h 7.0 mph /  11.3 km/h 47 % 0.00 in /  0 mm
13:43 76.4 °F /  24.7 °C 51.6 °F /  10.9 °C 29.95 in /  1014.1 hPa WNW 5.1 mph /  8.2 km/h 11.5 mph /  18.5 km/h 42 % 0.00 in /  0 mm
13:48 76.5 °F /  24.7 °C 51.7 °F /  10.9 °C 29.95 in /  1014.1 hPa WSW 5.6 mph /  9 km/h 10.4 mph /  16.7 km/h 42 % 0.00 in /  0 mm
13:53 76.6 °F /  24.8 °C 51.1 °F /  10.6 °C 29.95 in /  1014.1 hPa West 5.7 mph /  9.2 km/h 9.2 mph /  14.8 km/h 41 % 0.00 in /  0 mm
13:58 76.7 °F /  24.8 °C 53.1 °F /  11.7 °C 29.95 in /  1014.1 hPa WSW 2.0 mph /  3.2 km/h 6.9 mph /  11.1 km/h 44 % 0.00 in /  0 mm
14:03 76.8 °F /  24.9 °C 51.3 °F /  10.7 °C 29.95 in /  1014.1 hPa SW 6.3 mph /  10.1 km/h 12.0 mph /  19.3 km/h 41 % 0.00 in /  0 mm
14:08 76.8 °F /  24.9 °C 50.6 °F /  10.3 °C 29.95 in /  1014.1 hPa SW 10.9 mph /  17.5 km/h 13.8 mph /  22.2 km/h 40 % 0.00 in /  0 mm
14:13 76.8 °F /  24.9 °C 52.6 °F /  11.4 °C 29.95 in /  1014.1 hPa West 7.7 mph /  12.4 km/h 10.4 mph /  16.7 km/h 43 % 0.00 in /  0 mm
14:18 76.9 °F /  24.9 °C 52.1 °F /  11.2 °C 29.95 in /  1014.1 hPa SSW 4.9 mph /  7.9 km/h 10.4 mph /  16.7 km/h 42 % 0.00 in /  0 mm
14:23 76.8 °F /  24.9 °C 52.6 °F /  11.4 °C 29.95 in /  1014.1 hPa SW 3.3 mph /  5.3 km/h 5.8 mph /  9.3 km/h 43 % 0.00 in /  0 mm
14:28 76.7 °F /  24.8 °C 52.5 °F /  11.4 °C 29.95 in /  1014.1 hPa WNW 1.3 mph /  2.1 km/h 8.1 mph /  13 km/h 43 % 0.00 in /  0 mm
14:33 76.7 °F /  24.8 °C 55.5 °F /  13.1 °C 29.95 in /  1014.1 hPa West 1.8 mph /  2.9 km/h 6.9 mph /  11.1 km/h 48 % 0.00 in /  0 mm
14:38 76.9 °F /  24.9 °C 52.7 °F /  11.5 °C 29.95 in /  1014.1 hPa WSW 2.0 mph /  3.2 km/h 5.8 mph /  9.3 km/h 43 % 0.00 in /  0 mm
14:43 77.1 °F /  25.1 °C 52.2 °F /  11.2 °C 29.95 in /  1014.1 hPa WSW 1.5 mph /  2.4 km/h 3.5 mph /  5.6 km/h 42 % 0.00 in /  0 mm
14:48 77.1 °F /  25.1 °C 52.2 °F /  11.2 °C 29.95 in /  1014.1 hPa SW 4.4 mph /  7.1 km/h 10.4 mph /  16.7 km/h 42 % 0.00 in /  0 mm
14:53 77.1 °F /  25.1 °C 52.9 °F /  11.6 °C 29.95 in /  1014.1 hPa West 3.5 mph /  5.6 km/h 3.5 mph /  5.6 km/h 43 % 0.00 in /  0 mm
14:58 77.3 °F /  25.2 °C 53.7 °F /  12.1 °C 29.95 in /  1014.1 hPa West 3.2 mph /  5.1 km/h 4.6 mph /  7.4 km/h 44 % 0.00 in /  0 mm
15:03 77.5 °F /  25.3 °C 52.6 °F /  11.4 °C 29.95 in /  1014.1 hPa WSW 5.2 mph /  8.4 km/h 7.0 mph /  11.3 km/h 42 % 0.00 in /  0 mm
15:09 77.8 °F /  25.4 °C 53.5 °F /  11.9 °C 29.94 in /  1013.8 hPa West 3.0 mph /  4.8 km/h 6.0 mph /  9.7 km/h 43 % 0.00 in /  0 mm
15:14 78.0 °F /  25.6 °C 51.7 °F /  10.9 °C 29.94 in /  1013.8 hPa SW 5.9 mph /  9.5 km/h 8.1 mph /  13 km/h 40 % 0.00 in /  0 mm
15:19 78.2 °F /  25.7 °C 51.9 °F /  11.1 °C 29.94 in /  1013.8 hPa West 4.9 mph /  7.9 km/h 10.4 mph /  16.7 km/h 40 % 0.00 in /  0 mm
15:24 78.4 °F /  25.8 °C 52.1 °F /  11.2 °C 29.94 in /  1013.8 hPa SW 6.7 mph /  10.8 km/h 11.5 mph /  18.5 km/h 40 % 0.00 in /  0 mm
15:29 78.4 °F /  25.8 °C 52.1 °F /  11.2 °C 29.94 in /  1013.8 hPa West 3.9 mph /  6.3 km/h 5.8 mph /  9.3 km/h 40 % 0.00 in /  0 mm
15:34 78.5 °F /  25.8 °C 51.5 °F /  10.8 °C 29.93 in /  1013.4 hPa West 7.9 mph /  12.7 km/h 11.5 mph /  18.5 km/h 39 % 0.00 in /  0 mm
15:39 78.5 °F /  25.8 °C 52.8 °F /  11.6 °C 29.93 in /  1013.4 hPa WNW 1.6 mph /  2.6 km/h 4.0 mph /  6.4 km/h 41 % 0.00 in /  0 mm
15:44 78.5 °F /  25.8 °C 52.8 °F /  11.6 °C 29.93 in /  1013.4 hPa West 3.7 mph /  6 km/h 7.0 mph /  11.3 km/h 41 % 0.00 in /  0 mm
15:49 78.3 °F /  25.7 °C 51.3 °F /  10.7 °C 29.93 in /  1013.4 hPa WSW 5.5 mph /  8.9 km/h 10.4 mph /  16.7 km/h 39 % 0.00 in /  0 mm
15:54 78.1 °F /  25.6 °C 52.5 °F /  11.4 °C 29.93 in /  1013.4 hPa WSW 2.3 mph /  3.7 km/h 6.0 mph /  9.7 km/h 41 % 0.00 in /  0 mm
15:59 78.2 °F /  25.7 °C 52.6 °F /  11.4 °C 29.93 in /  1013.4 hPa WNW 2.5 mph /  4 km/h 3.5 mph /  5.6 km/h 41 % 0.00 in /  0 mm
16:04 78.3 °F /  25.7 °C 52.0 °F /  11.1 °C 29.93 in /  1013.4 hPa SW 3.8 mph /  6.1 km/h 8.1 mph /  13 km/h 40 % 0.00 in /  0 mm
16:09 78.7 °F /  25.9 °C 53.7 °F /  12.1 °C 29.92 in /  1013.1 hPa WSW 5.8 mph /  9.3 km/h 8.0 mph /  12.9 km/h 42 % 0.00 in /  0 mm
16:14 78.9 °F /  26.1 °C 51.8 °F /  11 °C 29.92 in /  1013.1 hPa SW 2.2 mph /  3.5 km/h 5.8 mph /  9.3 km/h 39 % 0.00 in /  0 mm
16:19 79.1 °F /  26.2 °C 52.0 °F /  11.1 °C 29.92 in /  1013.1 hPa SW 3.7 mph /  6 km/h 5.8 mph /  9.3 km/h 39 % 0.00 in /  0 mm
16:24 79.3 °F /  26.3 °C 52.2 °F /  11.2 °C 29.92 in /  1013.1 hPa SW 4.0 mph /  6.4 km/h 6.0 mph /  9.7 km/h 39 % 0.00 in /  0 mm
16:29 79.4 °F /  26.3 °C 52.3 °F /  11.3 °C 29.92 in /  1013.1 hPa WSW 2.2 mph /  3.5 km/h 5.0 mph /  8 km/h 39 % 0.00 in /  0 mm
16:34 79.6 °F /  26.4 °C 51.8 °F /  11 °C 29.91 in /  1012.8 hPa WSW 2.7 mph /  4.3 km/h 7.0 mph /  11.3 km/h 38 % 0.00 in /  0 mm
16:39 79.8 °F /  26.6 °C 52.6 °F /  11.4 °C 29.91 in /  1012.8 hPa West 2.6 mph /  4.2 km/h 5.8 mph /  9.3 km/h 39 % 0.00 in /  0 mm
16:44 79.9 °F /  26.6 °C 51.3 °F /  10.7 °C 29.91 in /  1012.8 hPa WSW 3.0 mph /  4.8 km/h 6.9 mph /  11.1 km/h 37 % 0.00 in /  0 mm
16:50 79.9 °F /  26.6 °C 50.6 °F /  10.3 °C 29.91 in /  1012.8 hPa West 5.0 mph /  8 km/h 6.9 mph /  11.1 km/h 36 % 0.00 in /  0 mm
16:55 79.9 °F /  26.6 °C 52.0 °F /  11.1 °C 29.91 in /  1012.8 hPa WSW 1.7 mph /  2.7 km/h 3.5 mph /  5.6 km/h 38 % 0.00 in /  0 mm
17:00 79.8 °F /  26.6 °C 51.2 °F /  10.7 °C 29.91 in /  1012.8 hPa WSW 1.4 mph /  2.3 km/h 3.5 mph /  5.6 km/h 37 % 0.00 in /  0 mm
17:05 79.6 °F /  26.4 °C 51.8 °F /  11 °C 29.91 in /  1012.8 hPa WSW 0.9 mph /  1.4 km/h 2.3 mph /  3.7 km/h 38 % 0.00 in /  0 mm
17:10 79.4 °F /  26.3 °C 51.6 °F /  10.9 °C 29.91 in /  1012.8 hPa Calm     38 % 0.00 in /  0 mm
17:15 79.2 °F /  26.2 °C 50.7 °F /  10.4 °C 29.91 in /  1012.8 hPa WSW 0.6 mph /  1 km/h 2.3 mph /  3.7 km/h 37 % 0.00 in /  0 mm
17:20 79.0 °F /  26.1 °C 51.2 °F /  10.7 °C 29.91 in /  1012.8 hPa WSW 0.1 mph /  0.2 km/h 1.2 mph /  1.9 km/h 38 % 0.00 in /  0 mm
17:25 78.8 °F /  26 °C 51.0 °F /  10.6 °C 29.91 in /  1012.8 hPa Calm   1.2 mph /  1.9 km/h 38 % 0.00 in /  0 mm
17:30 78.5 °F /  25.8 °C 52.2 °F /  11.2 °C 29.91 in /  1012.8 hPa Calm     40 % 0.00 in /  0 mm
17:35 78.3 °F /  25.7 °C 51.3 °F /  10.7 °C 29.90 in /  1012.4 hPa WSW 0.3 mph /  0.5 km/h 1.2 mph /  1.9 km/h 39 % 0.00 in /  0 mm
17:40 78.1 °F /  25.6 °C 52.5 °F /  11.4 °C 29.90 in /  1012.4 hPa WSW 0.1 mph /  0.2 km/h 1.2 mph /  1.9 km/h 41 % 0.00 in /  0 mm
17:45 77.9 °F /  25.5 °C 50.9 °F /  10.5 °C 29.90 in /  1012.4 hPa WSW 0.1 mph /  0.2 km/h 1.2 mph /  1.9 km/h 39 % 0.00 in /  0 mm
17:50 77.8 °F /  25.4 °C 50.9 °F /  10.5 °C 29.90 in /  1012.4 hPa Calm   1.2 mph /  1.9 km/h 39 % 0.00 in /  0 mm
17:55 77.7 °F /  25.4 °C 50.8 °F /  10.4 °C 29.90 in /  1012.4 hPa Calm     39 % 0.00 in /  0 mm
18:00 77.6 °F /  25.3 °C 52.0 °F /  11.1 °C 29.90 in /  1012.4 hPa Calm     41 % 0.00 in /  0 mm
18:05 77.6 °F /  25.3 °C 51.4 °F /  10.8 °C 29.90 in /  1012.4 hPa Calm     40 % 0.00 in /  0 mm
18:10 77.5 °F /  25.3 °C 51.3 °F /  10.7 °C 29.90 in /  1012.4 hPa Calm     40 % 0.00 in /  0 mm
18:15 77.3 °F /  25.2 °C 51.8 °F /  11 °C 29.90 in /  1012.4 hPa Calm     41 % 0.00 in /  0 mm
18:20 77.2 °F /  25.1 °C 51.7 °F /  10.9 °C 29.90 in /  1012.4 hPa Calm     41 % 0.00 in /  0 mm
18:25 77.1 °F /  25.1 °C 54.7 °F /  12.6 °C 29.90 in /  1012.4 hPa WSW 0.9 mph /  1.4 km/h 2.3 mph /  3.7 km/h 46 % 0.00 in /  0 mm
18:30 76.9 °F /  24.9 °C 55.1 °F /  12.8 °C 29.90 in /  1012.4 hPa WSW 1.2 mph /  1.9 km/h 3.5 mph /  5.6 km/h 47 % 0.00 in /  0 mm
18:35 76.5 °F /  24.7 °C 54.8 °F /  12.7 °C 29.90 in /  1012.4 hPa SW 0.1 mph /  0.2 km/h 2.3 mph /  3.7 km/h 47 % 0.00 in /  0 mm
18:40 76.2 °F /  24.6 °C 53.9 °F /  12.2 °C 29.90 in /  1012.4 hPa SW 0.7 mph /  1.1 km/h 3.5 mph /  5.6 km/h 46 % 0.00 in /  0 mm
18:45 75.6 °F /  24.2 °C 53.4 °F /  11.9 °C 29.90 in /  1012.4 hPa SW 0.4 mph /  0.6 km/h 3.5 mph /  5.6 km/h 46 % 0.00 in /  0 mm
18:50 75.2 °F /  24 °C 54.2 °F /  12.3 °C 29.90 in /  1012.4 hPa South 1.0 mph /  1.6 km/h 2.0 mph /  3.2 km/h 48 % 0.00 in /  0 mm
18:55 74.9 °F /  23.8 °C 53.3 °F /  11.8 °C 29.90 in /  1012.4 hPa SSW 0.3 mph /  0.5 km/h 2.0 mph /  3.2 km/h 47 % 0.00 in /  0 mm
19:00 74.6 °F /  23.7 °C 53.6 °F /  12 °C 29.90 in /  1012.4 hPa South 0.1 mph /  0.2 km/h 1.2 mph /  1.9 km/h 48 % 0.00 in /  0 mm
19:05 74.4 °F /  23.6 °C 54.0 °F /  12.2 °C 29.90 in /  1012.4 hPa South 0.6 mph /  1 km/h 2.3 mph /  3.7 km/h 49 % 0.00 in /  0 mm
19:10 74.2 °F /  23.4 °C 53.8 °F /  12.1 °C 29.90 in /  1012.4 hPa South 0.1 mph /  0.2 km/h 2.3 mph /  3.7 km/h 49 % 0.00 in /  0 mm
19:15 74.0 °F /  23.3 °C 53.6 °F /  12 °C 29.91 in /  1012.8 hPa SW 0.6 mph /  1 km/h 2.3 mph /  3.7 km/h 49 % 0.00 in /  0 mm
19:21 73.8 °F /  23.2 °C 53.4 °F /  11.9 °C 29.91 in /  1012.8 hPa SW 1.0 mph /  1.6 km/h 3.0 mph /  4.8 km/h 49 % 0.00 in /  0 mm
19:26 73.6 °F /  23.1 °C 53.8 °F /  12.1 °C 29.91 in /  1012.8 hPa Calm   2.0 mph /  3.2 km/h 50 % 0.00 in /  0 mm
19:30 73.2 °F /  22.9 °C 53.5 °F /  11.9 °C 29.91 in /  1012.8 hPa Calm   2.0 mph /  3.2 km/h 50 % 0.00 in /  0 mm
19:35 72.8 °F /  22.7 °C 53.7 °F /  12.1 °C 29.91 in /  1012.8 hPa Calm   2.0 mph /  3.2 km/h 51 % 0.00 in /  0 mm
19:40 72.5 °F /  22.5 °C 53.4 °F /  11.9 °C 29.91 in /  1012.8 hPa SW 1.0 mph /  1.6 km/h 3.0 mph /  4.8 km/h 51 % 0.00 in /  0 mm
19:45 72.2 °F /  22.3 °C 53.6 °F /  12 °C 29.91 in /  1012.8 hPa WSW 1.0 mph /  1.6 km/h 5.0 mph /  8 km/h 52 % 0.00 in /  0 mm
19:51 71.9 °F /  22.2 °C 53.3 °F /  11.8 °C 29.91 in /  1012.8 hPa WSW 1.0 mph /  1.6 km/h 3.0 mph /  4.8 km/h 52 % 0.00 in /  0 mm
19:55 71.5 °F /  21.9 °C 53.0 °F /  11.7 °C 29.91 in /  1012.8 hPa WSW 1.0 mph /  1.6 km/h 2.0 mph /  3.2 km/h 52 % 0.00 in /  0 mm
20:01 71.2 °F /  21.8 °C 52.7 °F /  11.5 °C 29.92 in /  1013.1 hPa WSW 0.5 mph /  0.8 km/h 2.3 mph /  3.7 km/h 52 % 0.00 in /  0 mm
20:06 70.9 °F /  21.6 °C 52.9 °F /  11.6 °C 29.92 in /  1013.1 hPa WSW 0.9 mph /  1.4 km/h 2.3 mph /  3.7 km/h 53 % 0.00 in /  0 mm
20:11 70.6 °F /  21.4 °C 53.1 °F /  11.7 °C 29.92 in /  1013.1 hPa Calm   2.3 mph /  3.7 km/h 54 % 0.00 in /  0 mm
20:16 70.3 °F /  21.3 °C 52.9 °F /  11.6 °C 29.92 in /  1013.1 hPa WSW 0.4 mph /  0.6 km/h 1.2 mph /  1.9 km/h 54 % 0.00 in /  0 mm
20:21 70.0 °F /  21.1 °C 52.6 °F /  11.4 °C 29.92 in /  1013.1 hPa WSW 0.1 mph /  0.2 km/h 1.2 mph /  1.9 km/h 54 % 0.00 in /  0 mm
20:26 69.8 °F /  21 °C 52.9 °F /  11.6 °C 29.92 in /  1013.1 hPa Calm     55 % 0.00 in /  0 mm
20:31 69.4 °F /  20.8 °C 52.5 °F /  11.4 °C 29.92 in /  1013.1 hPa Calm   1.2 mph /  1.9 km/h 55 % 0.00 in /  0 mm
20:36 69.1 °F /  20.6 °C 52.7 °F /  11.5 °C 29.91 in /  1012.8 hPa Calm   1.2 mph /  1.9 km/h 56 % 0.00 in /  0 mm
20:41 68.8 °F /  20.4 °C 52.5 °F /  11.4 °C 29.91 in /  1012.8 hPa Calm     56 % 0.00 in /  0 mm
20:46 68.5 °F /  20.3 °C 52.7 °F /  11.5 °C 29.92 in /  1013.1 hPa WSW 0.2 mph /  0.3 km/h 2.3 mph /  3.7 km/h 57 % 0.00 in /  0 mm
20:51 68.1 °F /  20.1 °C 52.3 °F /  11.3 °C 29.92 in /  1013.1 hPa WSW 0.1 mph /  0.2 km/h 1.2 mph /  1.9 km/h 57 % 0.00 in /  0 mm
20:56 67.8 °F /  19.9 °C 52.5 °F /  11.4 °C 29.92 in /  1013.1 hPa WSW 0.4 mph /  0.6 km/h 2.3 mph /  3.7 km/h 58 % 0.00 in /  0 mm
21:01 67.5 °F /  19.7 °C 52.2 °F /  11.2 °C 29.92 in /  1013.1 hPa WSW 0.4 mph /  0.6 km/h 1.2 mph /  1.9 km/h 58 % 0.00 in /  0 mm
21:06 67.2 °F /  19.6 °C 51.9 °F /  11.1 °C 29.93 in /  1013.4 hPa WSW 1.3 mph /  2.1 km/h 3.5 mph /  5.6 km/h 58 % 0.00 in /  0 mm
21:11 67.0 °F /  19.4 °C 51.7 °F /  10.9 °C 29.93 in /  1013.4 hPa Calm   1.2 mph /  1.9 km/h 58 % 0.00 in /  0 mm
21:16 66.8 °F /  19.3 °C 52.0 °F /  11.1 °C 29.93 in /  1013.4 hPa Calm     59 % 0.00 in /  0 mm
21:21 66.6 °F /  19.2 °C 51.8 °F /  11 °C 29.93 in /  1013.4 hPa WSW 1.4 mph /  2.3 km/h 3.5 mph /  5.6 km/h 59 % 0.00 in /  0 mm
21:26 66.4 °F /  19.1 °C 51.6 °F /  10.9 °C 29.93 in /  1013.4 hPa SW 1.4 mph /  2.3 km/h 2.3 mph /  3.7 km/h 59 % 0.00 in /  0 mm
21:31 66.2 °F /  19 °C 51.9 °F /  11.1 °C 29.93 in /  1013.4 hPa WSW 3.0 mph /  4.8 km/h 4.6 mph /  7.4 km/h 60 % 0.00 in /  0 mm
21:36 66.1 °F /  18.9 °C 52.3 °F /  11.3 °C 29.93 in /  1013.4 hPa WSW 3.1 mph /  5 km/h 4.0 mph /  6.4 km/h 61 % 0.00 in /  0 mm
21:41 65.9 °F /  18.8 °C 52.1 °F /  11.2 °C 29.93 in /  1013.4 hPa SW 2.8 mph /  4.5 km/h 4.6 mph /  7.4 km/h 61 % 0.00 in /  0 mm
21:46 65.8 °F /  18.8 °C 52.0 °F /  11.1 °C 29.93 in /  1013.4 hPa SW 2.7 mph /  4.3 km/h 3.5 mph /  5.6 km/h 61 % 0.00 in /  0 mm
21:47 65.8 °F /  18.8 °C 52.0 °F /  11.1 °C 29.93 in /  1013.4 hPa SW 3.0 mph /  4.8 km/h 3.5 mph /  5.6 km/h 61 % 0.00 in /  0 mm
21:52 65.6 °F /  18.7 °C 51.8 °F /  11 °C 29.93 in /  1013.4 hPa SW 2.0 mph /  3.2 km/h 3.5 mph /  5.6 km/h 61 % 0.00 in /  0 mm
21:57 65.5 °F /  18.6 °C 52.1 °F /  11.2 °C 29.93 in /  1013.4 hPa SW 2.0 mph /  3.2 km/h 3.5 mph /  5.6 km/h 62 % 0.00 in /  0 mm
22:02 65.4 °F /  18.6 °C 52.0 °F /  11.1 °C 29.94 in /  1013.8 hPa SW 1.1 mph /  1.8 km/h 2.3 mph /  3.7 km/h 62 % 0.00 in /  0 mm
22:07 65.2 °F /  18.4 °C 52.3 °F /  11.3 °C 29.94 in /  1013.8 hPa Calm     63 % 0.00 in /  0 mm
22:12 65.1 °F /  18.4 °C 52.2 °F /  11.2 °C 29.94 in /  1013.8 hPa Calm     63 % 0.00 in /  0 mm
22:17 64.9 °F /  18.3 °C 52.0 °F /  11.1 °C 29.94 in /  1013.8 hPa SW 0.1 mph /  0.2 km/h   63 % 0.00 in /  0 mm
22:22 64.8 °F /  18.2 °C 51.9 °F /  11.1 °C 29.94 in /  1013.8 hPa Calm     63 % 0.00 in /  0 mm
22:27 64.6 °F /  18.1 °C 52.1 °F /  11.2 °C 29.94 in /  1013.8 hPa Calm     64 % 0.00 in /  0 mm
22:32 64.4 °F /  18 °C 52.4 °F /  11.3 °C 29.94 in /  1013.8 hPa Calm   2.3 mph /  3.7 km/h 65 % 0.00 in /  0 mm
22:37 64.2 °F /  17.9 °C 52.2 °F /  11.2 °C 29.94 in /  1013.8 hPa Calm   1.2 mph /  1.9 km/h 65 % 0.00 in /  0 mm
22:42 64.0 °F /  17.8 °C 52.0 °F /  11.1 °C 29.93 in /  1013.4 hPa Calm     65 % 0.00 in /  0 mm
22:47 63.8 °F /  17.7 °C 51.8 °F /  11 °C 29.93 in /  1013.4 hPa SW 0.3 mph /  0.5 km/h 1.2 mph /  1.9 km/h 65 % 0.00 in /  0 mm
22:52 63.5 °F /  17.5 °C 51.9 °F /  11.1 °C 29.93 in /  1013.4 hPa SW 0.1 mph /  0.2 km/h 1.2 mph /  1.9 km/h 66 % 0.00 in /  0 mm
22:53 63.5 °F /  17.5 °C 51.9 °F /  11.1 °C 29.93 in /  1013.4 hPa SW 0.3 mph /  0.5 km/h 1.2 mph /  1.9 km/h 66 % 0.00 in /  0 mm
22:58 63.3 °F /  17.4 °C 51.7 °F /  10.9 °C 29.93 in /  1013.4 hPa SW 0.2 mph /  0.3 km/h 1.0 mph /  1.6 km/h 66 % 0.00 in /  0 mm
23:03 63.0 °F /  17.2 °C 51.9 °F /  11.1 °C 29.93 in /  1013.4 hPa Calm     67 % 0.00 in /  0 mm
23:09 62.8 °F /  17.1 °C 51.7 °F /  10.9 °C 29.94 in /  1013.8 hPa SW 0.3 mph /  0.5 km/h 2.3 mph /  3.7 km/h 67 % 0.00 in /  0 mm
23:14 62.6 °F /  17 °C 51.5 °F /  10.8 °C 29.94 in /  1013.8 hPa Calm     67 % 0.00 in /  0 mm
23:19 62.5 °F /  16.9 °C 51.4 °F /  10.8 °C 29.94 in /  1013.8 hPa Calm     67 % 0.00 in /  0 mm
23:24 62.3 °F /  16.8 °C 51.6 °F /  10.9 °C 29.94 in /  1013.8 hPa SW 0.4 mph /  0.6 km/h 1.2 mph /  1.9 km/h 68 % 0.00 in /  0 mm
23:29 62.1 °F /  16.7 °C 51.4 °F /  10.8 °C 29.94 in /  1013.8 hPa SW 1.0 mph /  1.6 km/h 2.3 mph /  3.7 km/h 68 % 0.00 in /  0 mm
23:34 61.9 °F /  16.6 °C 51.2 °F /  10.7 °C 29.94 in /  1013.8 hPa SW 1.0 mph /  1.6 km/h 2.3 mph /  3.7 km/h 68 % 0.00 in /  0 mm
23:39 61.7 °F /  16.5 °C 51.0 °F /  10.6 °C 29.94 in /  1013.8 hPa SW 0.3 mph /  0.5 km/h 1.2 mph /  1.9 km/h 68 % 0.00 in /  0 mm
23:44 61.6 °F /  16.4 °C 51.3 °F /  10.7 °C 29.94 in /  1013.8 hPa Calm   1.2 mph /  1.9 km/h 69 % 0.00 in /  0 mm
23:49 61.5 °F /  16.4 °C 51.2 °F /  10.7 °C 29.94 in /  1013.8 hPa SW 1.4 mph /  2.3 km/h 2.3 mph /  3.7 km/h 69 % 0.00 in /  0 mm
23:54 61.4 °F /  16.3 °C 51.1 °F /  10.6 °C 29.94 in /  1013.8 hPa SW 0.5 mph /  0.8 km/h 2.3 mph /  3.7 km/h 69 % 0.00 in /  0 mm
23:59 61.4 °F /  16.3 °C 51.1 °F /  10.6 °C 29.94 in /  1013.8 hPa Calm   1.2 mph /  1.9 km/h 69 % 0.00 in /  0 mm
Crab Meadow Weather
Compliments of Weather Underground - 3 mb

Script developed by  Jim McMurry - jmcmurry@mwt.net Adapted for the template by  Wim van der Kuil - Leuven-Template.eu

Clouds: Mostly sunny and mostly clear indicate the same amount of cloud coverage - about 25 percent. Mostly sunny is used during the daytime, and mostly clear is used at night when there is no sun.